Flag for US Virgin Islands Weather past 2 weeks in Christiansted, US Virgin Islands

Now
88 °F

Scattered clouds.


Feels Like: 97 °F
Forecast: 79 / 86 °F
Wind: 13 mph from Southeast

Location: Christiansted / Henry E. Rohlsen Airport - Saint Croix

Current Time: Jul 30, 2014 at 3:27:42 PM

Latest Report: Jul 30, 2014 at 2:53 PM


Visibility: 10 mi

Pressure: 30.01 "Hg

Humidity: 63%

Dew point: 74 °F

Location of ChristianstedLocation

Historic Weather in Christiansted — Graph

°F

Christiansted temperature yesterday

Maximum temperature yesterday: 90 °F (at 12:53 PM)
Minimum temperature yesterday: 78 °F (at 12:53 AM)
Average temperature yesterday: 83 °F

Past Weeks' High & Low Weather Summary

 TemperatureHumidityPressure
High92 °F (Jul 19, 12:53 PM)89% (Jul 22, 12:36 PM)30.13 "Hg (Jul 22, 12:36 PM)
Low76 °F (Jul 30, 4:53 AM)50% (Jul 24, 10:53 AM)29.99 "Hg (Jul 26, 4:05 AM)
Average84 °F70%30.06 "Hg
* Reported Jul 15 1:53 PM — Jul 30 1:53 PM, Christiansted, Weather by CustomWeather, © 2014

Note: Actual official high and low records may vary slightly from our data, if they occured in-between our weather recording intervals... More about our weather records

Advertising

Christiansted weather history for previous 24 hours

 ConditionsComfort  
Time TempWeatherWind HumidityBarometerVisibility
1:53 PM
Jul 30
90 °FScattered clouds.10 mph56%30.02 "Hg10 mi
12:53 PM89 °FScattered clouds.13 mph57%30.03 "Hg10 mi
11:53 AM89 °FPassing clouds.12 mph57%30.04 "Hg10 mi
10:53 AM89 °FScattered clouds.14 mph55%30.06 "Hg10 mi
9:53 AM88 °FScattered clouds.14 mph59%30.06 "Hg10 mi
8:53 AM87 °FScattered clouds.14 mph59%30.06 "Hg10 mi
7:53 AM85 °FScattered clouds.14 mph63%30.04 "Hg10 mi
6:53 AM79 °FPassing clouds.5 mph79%30.03 "Hg10 mi
5:53 AM76 °FPassing clouds.5 mph85%30.02 "Hg10 mi
4:53 AM76 °FClear.5 mph85%30.02 "Hg10 mi
3:53 AM77 °FClear.5 mph82%30.03 "Hg10 mi
2:53 AM77 °FClear.5 mph85%30.03 "Hg10 mi
1:53 AM77 °FClear.5 mph82%30.04 "Hg10 mi
11:53 PM
Jul 29
78 °FPassing clouds.3 mph79%30.06 "Hg10 mi
10:53 PM78 °FClear.5 mph79%30.07 "Hg10 mi
9:53 PM79 °FClear.3 mph82%30.07 "Hg10 mi
8:53 PM81 °FPassing clouds.5 mph77%30.05 "Hg10 mi
7:53 PM82 °FPassing clouds.5 mph72%30.03 "Hg10 mi
6:53 PM83 °FScattered clouds.12 mph70%30.01 "Hg10 mi
5:53 PM84 °FScattered clouds.12 mph70%30.01 "Hg10 mi
4:53 PM86 °FScattered clouds.10 mph67%30.01 "Hg10 mi
3:53 PM87 °FScattered clouds.10 mph63%30.00 "Hg10 mi
Weather by CustomWeather, © 2014

See weather overviewHow to use our weather pages